Regional Weather Roundup
Issued by NWS Mobile, AL

Home | Current Version | Previous Version | Text Only | Print | Product List | Glossary On
Versions: 1 2 3 4 5 6 7 8 9 10 11 12 13 14 15 16 17 18 19 20 21 22 23 24 25 26 27 28 29 30 31 32 33 34 35 36 37 38 39 40 41 42 43 44 45 46 47 48 49 50
000
ASUS44 KMOB 270012
RWRMOB
REGIONAL WEATHER ROUNDUP
NATIONAL WEATHER SERVICE MOBILE AL
700 PM CDT MON SEP 26 2016

NOTE: "FAIR" INDICATES FEW OR NO CLOUDS BELOW 12,000 FEET WITH NO
      SIGNIFICANT WEATHER AND/OR OBSTRUCTIONS TO VISIBILITY.

  * THESE STATIONS ARE PART OF THE UNIVERSITY OF SOUTH ALABAMA
    MESONET AND ARE NOT UNDER NWS OR FAA QUALITY CONTROL.

ALZ061>064-270100-
COASTAL ALABAMA

CITY           SKY/WX    TMP DP  RH WIND       PRES   REMARKS
MOBILE REG APT CLOUDY    74  72  93 CALM      29.97R
6HR MIN TEMP:  71; 6HR MAX TEMP:  92; 6HR PCP:  1.57;

BROOKLEY FIELD CLOUDY    76  74  93 CALM      29.96S
6HR MIN TEMP:  76; 6HR MAX TEMP:  89; 6HR PCP:  0.02;

USA CAMPUS*    NOT AVBL
DOG RIVER*     NOT AVBL


CITY           SKY/WX    TMP DP  RH WIND       PRES   REMARKS
MOUNT VERNON*  NOT AVBL
SARALAND*      NOT AVBL
BAY MINETTE*   NOT AVBL
LOXLEY*        NOT AVBL
ROBERTSDALE*   NOT AVBL
FAIRHOPE*      NOT AVBL
ELBERTA*       NOT AVBL
FOLEY*         NOT AVBL
GRAND BAY*     NOT AVBL
DAUPHIN ISLND* NOT AVBL
BON SCOUR NWR* NOT AVBL
GULF SHORES    CLOUDY    74  74 100 W6        29.96R

$$

ALZ051>060-270100-
INTERIOR SOUTHWEST AND SOUTH CENTRAL ALABAMA

CITY           SKY/WX    TMP DP  RH WIND       PRES   REMARKS
GREENVILLE     NOT AVBL
EVERGREEN      CLEAR     76  70  82 SW3       29.97R
6HR MIN TEMP:  75; 6HR MAX TEMP:  90;

CASTLEBERRY*   NOT AVBL
ATMORE*        NOT AVBL
DIXIE*         NOT AVBL
ANDALUSIA/OPP  MOCLDY    77  72  84 S6        29.98R
6HR MIN TEMP:  77; 6HR MAX TEMP:  95; 6HR PCP:  0.34;

ANDALUSIA*     NOT AVBL
FLORALA APT    NOT AVBL
FLORALA*       NOT AVBL

$$

FLZ001>006-270100-
WESTERN FLORIDA PANHANDLE

CITY           SKY/WX    TMP DP  RH WIND       PRES   REMARKS
PENSACOLA      CLEAR     76  73  91 NE5       29.96R
6HR MIN TEMP:  75; 6HR MAX TEMP:  88; 6HR PCP:  0.03;

NAS PENSACOLA  MOCLDY    76  74  93 NW3       29.95R
6HR MIN TEMP:  74; 6HR MAX TEMP:  86; 6HR PCP:  0.14;

MILTON         MOCLDY    73  73 100 E3        29.97R
6HR MIN TEMP:  71; 6HR MAX TEMP:  87; 6HR PCP:  0.82;

WHTNG S FIELD  PTCLDY    77  74  90 E5        29.96R
6HR MIN TEMP:  73; 6HR MAX TEMP:  91; 6HR PCP:  1.04;



CITY           SKY/WX    TMP DP  RH WIND       PRES   REMARKS
WALNUT HILL*   NOT AVBL
JAY*           NOT AVBL
DUKE FIELD     MOCLDY    73  69  86 NE5       29.98S
CRESTVIEW      LGT RAIN  73  70  90 VRB3      30.01R
6HR MIN TEMP:  73; 6HR MAX TEMP:  92; 6HR PCP:  0.52;

VALPARAISO     MOCLDY    75  68  78 N7        29.97R
6HR MIN TEMP:  75; 6HR MAX TEMP:  91; 6HR PCP:  0.01;

DESTIN         PTCLDY    80  71  74 NE7       29.96R
6HR MIN TEMP:  80; 6HR MAX TEMP:  90; 6HR PCP: TRACE;


$$

MSZ076-079-270100-
INTERIOR SOUTHEAST MISSISSIPPI

CITY           SKY/WX    TMP DP  RH WIND       PRES   REMARKS
LEAKESVILLE*   NOT AVBL
AGRICOLA*      NOT AVBL

$$

MARINE OBSERVATIONS

STATION/POSITION TIME  TEMP    WIND        PRES    WAVE
                       AIR SEA DIR/SP/G            HT/PER
                 (UTC) (F)     (DEG/KT/KT) (MB)    (FT/S)
PASCAGOULA       2300   78      60/ 13/ 17 1014.0R
PETIT BOIS ISLND 2300   84     150/  5/  7 1014.3S
GRAND BAY        2245   82      60/ 12     1015.0R
CEDAR POINT      2300   82     130/  6     1013.9S
E DAUPHIN ISLAND 2300   82     120/  7/  8 1013.5R
MIDDLE BAY LIGHT 2300   82      60/  2     1013.9S
USCG MOBILE BAY  2300   76 85  340/  2/  4 1014.6S
STATE DOCKS      2300   76 87              1013.9R
MEAHER PARK      2300   77      30/  3     1014.2R
WEEKS BAY        2200   77                   N/A
FORT MORGAN      2300   82     130/  7/  8 1013.3R
12 S ORANGE BCH  2350   82 86  150/  2/  2 1014.2R   1/ 3
PENSACOLA BAY    2300   80 86   CALM  /  2 1014.0R
64 S DAUPHIN ISL 2300   83 86   50/  2/  4 1013.4F
67 S FORT MORGAN 2330   83      20/  2     1013.5S

$$

SELECTED LOCATIONS ACROSS THE REGION

CITY           SKY/WX    TMP DP  RH WIND       PRES   REMARKS
NEW ORLEANS    CLOUDY    85  73  67 NW10      29.95R
GULFPORT       MOCLDY    79  73  82 E9G18     29.95R
PASCAGOULA AP  CLOUDY    73  73 100 SW5       29.96F
PASCAGOULA*    NOT AVBL
HATTIESBURG    PTCLDY    77  72  84 SW3       29.95R
LAUREL         CLOUDY    79  70  73 S3        29.95F
MERIDIAN       MOCLDY    82  69  64 CALM      29.95R
JACKSON        PTCLDY    82  68  62 NW7       29.97R
MONTGOMERY     PTCLDY    78  67  68 SE3       29.96R
TROY           PTCLDY    78  72  81 CALM      29.98R
KINSTON*       NOT AVBL
GENEVA*        NOT AVBL
ASHFORD*       NOT AVBL
DOTHAN         CLEAR     78  71  79 CALM      30.01R
PANAMA CITY    NOT AVBL

$$




USA.gov is the U.S. government's official web portal to all federal, state and local government web resources and services.